Weather History for North Bend, OR

Change the Weather History Date:

Wednesday, October 31, 2012

  Actual Average Record
Temperature  
Mean Temperature 58 °F 51 °F  
Max Temperature 61 °F 58 °F 80 °F (1966)
Min Temperature 55 °F 45 °F 29 °F (1920)
Degree Days  
Heating Degree Days 7 14  
Month to date heating degree days 300 359  
Since 1 July heating degree days 899 966  
Cooling Degree Days 0 0  
Month to date cooling degree days 1 0  
Year to date cooling degree days 1 2  
Growing Degree Days 7 (Base 50)    
Moisture  
Dew Point 55 °F    
Average Humidity 95    
Maximum Humidity 100    
Minimum Humidity 84    
Precipitation  
Precipitation 0.84 in 0.24 in 2.38 in (1947)
Month to date precipitation 6.09 4.73  
Year to date precipitation 34.89 43.55  
Snow  
Snow 0.00 in - - ()
Month to date snowfall  
Year to date snowfall  
Since 1 July snowfall  
Snow Depth -    
Sea Level Pressure  
Sea Level Pressure 29.72 in    
Wind  
Wind Speed 8 mph (SSE)    
Max Wind Speed 22 mph    
Max Gust Speed 35 mph    
Visibility 9 miles    
Events      
T = Trace of Precipitation, MM = Missing Value Source: NWS Daily Summary

Daily Weather History Graph

Daily Weather History Graph

Search for Another Location

Airport:

Trip Planner

Search our weather history database for the weather conditions in past years. The results will help you decide how hot, cold, wet, or windy it might be!

Date:

Astronomy

Oct. 31, 2012 Rise Set
Actual Time 7:51 AM PDT 6:08 PM PDT
Civil Twilight 7:22 AM PDT 6:38 PM PDT
Nautical Twilight 6:48 AM PDT 7:12 PM PDT
Astronomical Twilight 6:15 AM PDT 7:45 PM PDT
Moon 7:20 PM PDT (10/31) 9:41 AM PDT (10/31)
Length of Visible Light 11h 16m
Length of Day
10h 16m
Waning Gibbous, 97% of the Moon is Illuminated
Oct 31
Waning Gibbous
Nov 6
Last Quarter
Nov 13
New
Nov 20
First Quarter
Nov 28
Full

Hourly Weather History & Observations

Time (PDT) Temp. Dew Point Humidity Pressure Visibility Wind Dir Wind Speed Gust Speed Precip Events Conditions
12:15 AM 59.0 °F 57.2 °F 94% 29.78 in 10.0 mi SSE 8.1 mph - N/A   Overcast
12:35 AM 57.2 °F 57.2 °F 100% 29.77 in 10.0 mi SE 3.5 mph - N/A   Overcast
12:55 AM 57.2 °F 57.2 °F 100% 29.76 in 10.0 mi South 3.5 mph - N/A   Overcast
1:15 AM 57.2 °F 57.2 °F 100% 29.76 in 10.0 mi South 5.8 mph - N/A   Overcast
1:35 AM 57.2 °F 57.2 °F 100% 29.76 in 10.0 mi WSW 4.6 mph - N/A   Overcast
1:55 AM 57.2 °F 57.2 °F 100% 29.74 in 10.0 mi East 4.6 mph - 0.01 in   Overcast
2:35 AM 57.2 °F 57.2 °F 100% 29.72 in 10.0 mi Calm Calm - 0.01 in   Overcast
2:55 AM 57.2 °F 57.2 °F 100% 29.72 in 10.0 mi Calm Calm - 0.01 in   Overcast
3:15 AM 57.2 °F 57.2 °F 100% 29.72 in 10.0 mi West 3.5 mph - 0.01 in   Overcast
3:35 AM 57.2 °F 57.2 °F 100% 29.71 in 7.0 mi ENE 3.5 mph - 0.02 in   Overcast
3:55 AM 55.4 °F 55.4 °F 100% 29.71 in 10.0 mi Calm Calm - 0.02 in   Overcast
4:15 AM 55.4 °F 55.4 °F 100% 29.71 in 4.0 mi SE 4.6 mph - 0.03 in   Overcast
4:35 AM 57.2 °F 55.4 °F 94% 29.71 in 10.0 mi South 10.4 mph - 0.04 in   Overcast
4:55 AM 57.2 °F 55.4 °F 94% 29.70 in 10.0 mi South 5.8 mph - 0.07 in   Overcast
5:15 AM 57.2 °F 55.4 °F 94% 29.69 in 10.0 mi SE 3.5 mph - 0.01 in   Overcast
5:35 AM 57.2 °F 55.4 °F 94% 29.69 in 9.0 mi SE 6.9 mph - 0.03 in   Overcast
5:55 AM 57.2 °F 55.4 °F 94% 29.69 in 10.0 mi SSE 6.9 mph - 0.03 in   Overcast
6:15 AM 57.2 °F 55.4 °F 94% 29.68 in 10.0 mi SSE 6.9 mph - 0.02 in   Overcast
6:35 AM 55.4 °F 55.4 °F 100% 29.68 in 9.0 mi SE 8.1 mph - 0.04 in   Overcast
6:55 AM 55.4 °F 55.4 °F 100% 29.67 in 10.0 mi SE 5.8 mph - 0.07 in   Overcast
7:15 AM 55.4 °F 55.4 °F 100% 29.66 in 7.0 mi SE 5.8 mph - 0.05 in   Overcast
7:35 AM 55.4 °F 55.4 °F 100% 29.67 in 7.0 mi South 4.6 mph - 0.10 in   Overcast
7:55 AM 55.4 °F 55.4 °F 100% 29.69 in 8.0 mi West 10.4 mph - 0.18 in   Mostly Cloudy
8:15 AM 57.2 °F 55.4 °F 94% 29.69 in 2.0 mi SSW 16.1 mph 28.8 mph 0.09 in   Overcast
8:35 AM 57.2 °F 55.4 °F 94% 29.69 in 2.0 mi South 18.4 mph 32.2 mph 0.12 in   Overcast
8:55 AM 57.2 °F 55.4 °F 94% 29.70 in 10.0 mi South 21.9 mph 34.5 mph 0.15 in   Overcast
9:15 AM 57.2 °F 55.4 °F 94% 29.71 in 9.0 mi South 19.6 mph 34.5 mph 0.01 in   Overcast
9:35 AM 57.2 °F 55.4 °F 94% 29.71 in 10.0 mi South 15.0 mph 26.5 mph 0.03 in   Overcast
9:55 AM 57.2 °F 55.4 °F 94% 29.71 in 10.0 mi South 13.8 mph 19.6 mph 0.03 in   Overcast
10:15 AM 57.2 °F 55.4 °F 94% 29.72 in 10.0 mi South 9.2 mph 17.3 mph N/A   Partly Cloudy
10:35 AM 57.2 °F 55.4 °F 94% 29.72 in 10.0 mi SSE 10.4 mph 17.3 mph N/A   Scattered Clouds
10:55 AM 57.2 °F 55.4 °F 94% 29.73 in 10.0 mi SSE 10.4 mph - N/A   Mostly Cloudy
11:15 AM 57.2 °F 55.4 °F 94% 29.73 in 10.0 mi SSE 8.1 mph - 0.01 in   Mostly Cloudy
11:35 AM 57.2 °F 55.4 °F 94% 29.73 in 10.0 mi SSE 8.1 mph - 0.01 in   Mostly Cloudy
11:55 AM 57.2 °F 55.4 °F 94% 29.73 in 10.0 mi SSE 11.5 mph 19.6 mph 0.02 in   Overcast
12:15 PM 55.4 °F 55.4 °F 100% 29.74 in 10.0 mi SSE 9.2 mph - 0.02 in   Overcast
12:35 PM 55.4 °F 55.4 °F 100% 29.74 in 10.0 mi SSE 6.9 mph - 0.06 in   Overcast
12:55 PM 55.4 °F 55.4 °F 100% 29.74 in 10.0 mi SSE 4.6 mph - 0.06 in   Overcast
1:15 PM 57.2 °F 55.4 °F 94% 29.74 in 10.0 mi South 4.6 mph - 0.01 in   Overcast
1:35 PM 57.2 °F 55.4 °F 94% 29.74 in 10.0 mi SSE 4.6 mph - 0.01 in   Overcast
1:55 PM 57.2 °F 55.4 °F 94% 29.73 in 10.0 mi SE 5.8 mph - 0.01 in   Overcast
2:15 PM 57.2 °F 55.4 °F 94% 29.73 in 9.0 mi SSE 4.6 mph - N/A   Overcast
2:35 PM 57.2 °F 55.4 °F 94% 29.72 in 10.0 mi SE 5.8 mph - N/A   Overcast
2:55 PM 57.2 °F 55.4 °F 94% 29.73 in 10.0 mi SSE 8.1 mph - N/A   Overcast
3:15 PM 59.0 °F 55.4 °F 88% 29.72 in 10.0 mi SE 10.4 mph - N/A   Overcast
3:35 PM 57.2 °F 55.4 °F 94% 29.72 in 10.0 mi SSE 9.2 mph - N/A   Overcast
3:55 PM 59.0 °F 55.4 °F 88% 29.72 in 10.0 mi SSE 8.1 mph - N/A   Overcast
4:15 PM 59.0 °F 55.4 °F 88% 29.72 in 10.0 mi SSE 5.8 mph - N/A   Overcast
4:35 PM 59.0 °F 55.4 °F 88% 29.72 in 10.0 mi SSE 5.8 mph - N/A   Overcast
5:15 PM 57.2 °F 55.4 °F 94% 29.72 in 5.0 mi SSW 6.9 mph - 0.02 in   Overcast
5:35 PM 57.2 °F 55.4 °F 94% 29.72 in 10.0 mi SSE 9.2 mph 16.1 mph 0.03 in   Overcast
5:55 PM 57.2 °F 55.4 °F 94% 29.72 in 5.0 mi South 4.6 mph - 0.06 in   Overcast
6:15 PM 57.2 °F 55.4 °F 94% 29.71 in 10.0 mi SSE 5.8 mph - N/A   Overcast
6:35 PM 57.2 °F 55.4 °F 94% 29.71 in 10.0 mi SSE 4.6 mph - 0.01 in   Overcast
6:55 PM 55.4 °F 55.4 °F 100% 29.70 in 10.0 mi SE 4.6 mph - 0.01 in   Mostly Cloudy
7:15 PM 55.4 °F 55.4 °F 100% 29.70 in 10.0 mi SSE 3.5 mph - N/A   Mostly Cloudy
7:35 PM 55.4 °F 55.4 °F 100% 29.69 in 10.0 mi ESE 8.1 mph - N/A   Overcast
7:55 PM 55.4 °F 53.6 °F 94% 29.68 in 10.0 mi SE 9.2 mph - N/A   Overcast
8:15 PM 55.4 °F 53.6 °F 94% 29.68 in 9.0 mi SE 8.1 mph - 0.02 in   Overcast
8:35 PM 55.4 °F 53.6 °F 94% 29.68 in 7.0 mi SSE 15.0 mph - 0.08 in   Mostly Cloudy
8:55 PM 55.4 °F 53.6 °F 94% 29.69 in 10.0 mi SSE 15.0 mph 20.7 mph 0.11 in   Overcast
9:15 PM 55.4 °F 53.6 °F 94% 29.72 in 10.0 mi SSW 16.1 mph 24.2 mph N/A   Overcast
9:35 PM 55.4 °F 53.6 °F 94% 29.74 in 10.0 mi SSW 16.1 mph 21.9 mph N/A   Overcast
9:55 PM 55.4 °F 53.6 °F 94% 29.76 in 10.0 mi SSW 11.5 mph 17.3 mph N/A   Overcast
10:15 PM 55.4 °F 53.6 °F 94% 29.77 in 10.0 mi South 11.5 mph 26.5 mph N/A   Overcast
10:35 PM 57.2 °F 55.4 °F 94% 29.78 in 10.0 mi South 13.8 mph 18.4 mph N/A   Overcast
10:55 PM 57.2 °F 55.4 °F 94% 29.78 in 10.0 mi South 15.0 mph 21.9 mph N/A   Overcast
11:15 PM 57.2 °F 53.6 °F 88% 29.79 in 10.0 mi South 15.0 mph 20.7 mph N/A   Overcast
11:35 PM 57.2 °F 53.6 °F 88% 29.79 in 10.0 mi South 13.8 mph - N/A   Overcast
11:55 PM 57.2 °F 53.6 °F 88% 29.80 in 10.0 mi South 11.5 mph 19.6 mph N/A   Overcast